This is the latest recevied weather packets stored in our database for station/object N7NIP. If no packets are shown the sender has not sent any weather packets the latest 10 day(s).
| Time | Temp. | Humidity | Pressure | Rain* | Wind** | Luminosity | Snow |
|---|---|---|---|---|---|---|---|
| 1777914178 | 21.11° C | 50% | 1024.9 hPa | 0 mm | - | 643 W/m² | - |
| 1777913874 | 21.67° C | 48% | 1025 hPa | 0 mm | - | 629 W/m² | - |
| 1777913571 | 20.56° C | 49% | 1025 hPa | 0 mm | - | 615 W/m² | - |
| 1777913267 | 20.56° C | 48% | 1025.1 hPa | 0 mm | - | 600 W/m² | - |
| 1777912964 | 21.11° C | 50% | 1025.2 hPa | 0 mm | - | 587 W/m² | - |
| 1777912660 | 21.67° C | 48% | 1024.9 hPa | 0 mm | - | 566 W/m² | - |
| 1777912356 | 21.67° C | 49% | 1024.9 hPa | 0 mm | - | 560 W/m² | - |
| 1777912052 | 21.67° C | 49% | 1025 hPa | 0 mm | - | 539 W/m² | - |
| 1777911748 | 21.11° C | 50% | 1025.1 hPa | 0 mm | - | 517 W/m² | - |
| 1777911445 | 21.67° C | 50% | 1024.9 hPa | 0 mm | - | 515 W/m² | - |
| 1777911142 | 21.67° C | 53% | 1025 hPa | 0 mm | - | 493 W/m² | - |
| 1777910840 | 21.67° C | 59% | 1025.1 hPa | 0 mm | - | 470 W/m² | - |
| 1777910536 | 21.11° C | 52% | 1025.1 hPa | 0 mm | - | 452 W/m² | - |
| 1777910233 | 20.56° C | 51% | 1025 hPa | 0 mm | - | 436 W/m² | - |
| 1777909930 | 20° C | 58% | 1024.8 hPa | 0 mm | - | 393 W/m² | - |
| 1777909627 | 20° C | 57% | 1024.9 hPa | 0 mm | - | 367 W/m² | - |
| 1777909324 | 19.44° C | 58% | 1024.8 hPa | 0 mm | - | 366 W/m² | - |
| 1777909022 | 19.44° C | 57% | 1024.8 hPa | 0 mm | - | 336 W/m² | - |
| 1777908720 | 18.89° C | 58% | 1024.7 hPa | 0 mm | - | 354 W/m² | - |
| 1777908416 | 18.33° C | 58% | 1025.1 hPa | 0 mm | - | 367 W/m² | - |
| 1777908113 | 18.33° C | 61% | 1024.8 hPa | 0 mm | - | 367 W/m² | - |
| 1777907809 | 17.78° C | 61% | 1024.8 hPa | 0 mm | - | 328 W/m² | - |
| 1777907504 | 16.67° C | 65% | 1024.7 hPa | 0 mm | - | 299 W/m² | - |
| 1777907202 | 15.56° C | 71% | 1024.6 hPa | 0 mm | - | 265 W/m² | - |
| 1777906898 | 15° C | 77% | 1024.6 hPa | 0 mm | - | 214 W/m² | - |
* Rain latest hour (hover to see other rain measurements)
** Current wind speed in m/s (hover to see current wind gust speed)